Regional Weather Roundup
Issued by NWS San Diego, CA

Home | Current Version | Previous Version | Text Only | Print | Product List | Glossary On
Versions: 1 2 3 4 5 6 7 8 9 10 11 12 13 14 15 16 17 18 19 20 21 22 23 24 25 26 27 28 29 30 31 32 33 34 35 36 37 38 39 40 41 42 43 44 45 46 47 48
000
ASUS46 KSGX 251211
RWRSGX

SAN DIEGO HOURLY WEATHER ROUNDUP
NATIONAL WEATHER SERVICE SAN DIEGO CA
500 AM PDT MON JUL 25 2016

NOTE: "FAIR" INDICATES FEW OR NO CLOUDS BELOW 12,000 FEET WITH NO
SIGNIFICANT WEATHER AND/OR OBSTRUCTIONS TO VISIBILITY.

CAZ042-043-060-061-PZZ750-775-251300-

GREATER SAN DIEGO AREA

CITY           SKY/WX    TMP DP  RH WIND       PRES   REMARKS
LINDBERGH FLD  MOCLDY    68  66  93 NW5       29.92S
POINT LOMA       N/A     66  64  92 NW6         N/A
NATIONAL CITY    N/A     71  68  91 CALM      29.93R
CHULA VISTA      N/A     69  67  94 CALM      29.83S
IMPERIAL BEACH MOCLDY    72  66  81 NW5       29.91F
BROWN FIELD    CLOUDY    70  66  87 CALM      29.92S
MIRAMAR MCAS   CLOUDY    69  65  86 N3        29.92S
MONTGOMERY FLD MOCLDY    70  65  84 CALM      29.92S

$$

NORTH SAN DIEGO COUNTY

CITY           SKY/WX    TMP DP  RH WIND       PRES   REMARKS
CAMP PENDLETON PTCLDY    65  55  70 MISG      29.91S
OCEANSIDE AP   CLOUDY    66  62  87 CALM      29.90S
OCEANSIDE HBR    N/A     71  69  93 CALM      29.93S
CARLSBAD       CLOUDY    70  68  93 CALM      29.91S
DEL MAR          N/A     69  67  93 CALM      29.93S
LA JOLLA SCRIP   N/A     69  68  96 W1        29.91R
FALLBROOK        N/A     68  65  88 CALM      29.90R
ESCONDIDO        N/A     72  66  81 W1        29.92R
POWAY            N/A     69  65  85 CALM      29.91S

$$

EAST SAN DIEGO COUNTY

CITY           SKY/WX    TMP DP  RH WIND       PRES   REMARKS
RAMONA         MOCLDY    68  58  70 W3        29.95R
SANTEE LAKES     N/A     70  66  85 CALM      29.89S
LA MESA          N/A     68  65  91 CALM      29.84S
JAMUL            N/A     68  65  89 CALM      29.89S
DESCANSO N       N/A     69  51  51 CALM      29.75S
CAMPO            N/A     70  53  54 CALM      29.98S

$$

ORANGE COUNTY AND THE LOS ANGELES BASIN

CITY           SKY/WX    TMP DP  RH WIND       PRES   REMARKS
JOHN WAYNE AP  CLEAR     70  66  87 CALM      29.91S
LAKE FOREST FR   N/A     67  59  77 CALM      29.78S
HUNTINGTON BCH   N/A     69  67  94 W2        29.93S
LOS ALAMITOS   FAIR      68  65  90 SW3       29.91S
FULLERTON      CLEAR     71  65  81 CALM      29.91R
LONG BEACH     CLEAR     70  66  87 CALM      29.91S
L.A. AP        PTCLDY    70  65  84 S5        29.92R
L.A. DOWNTOWN  CLEAR     69  66  90 CALM      29.91S

$$

THE INLAND EMPIRE

CITY           SKY/WX    TMP DP  RH WIND       PRES   REMARKS
CORONA         CLEAR     65  62  90 CALM      29.93S FOG
CHINO          CLEAR     68  64  87 CALM      29.94S
ONTARIO        PTCLDY    69  63  81 CALM      29.94S
SAN BERNARDINO FAIR      74  50  43 CALM      29.95S
RIVERSIDE AP   CLEAR     72  62  71 CALM      29.94S
MORENO VALLEY    N/A     69  57  65 CALM      28.07S
MARCH ARB      CLEAR     69  55  61 NW3       29.96S
HORSETHIEF CYN   N/A     68  43  41 CALM      29.92F
PERRIS           N/A     71  52  50 CALM      29.95S
HEMET EAST       N/A     70  47  42 CALM      29.79S
FRENCH VALLEY  FAIR      70  50  49 CALM      29.96S
TEMECULA         N/A     69  57  63 CALM      29.92R

$$

SAN BERNARDINO AND RIVERSIDE COUNTY MOUNTAINS

CITY           SKY/WX    TMP DP  RH WIND       PRES   REMARKS
BIG BEAR AP    CLEAR     52  39  62 CALM      30.30S
ANGELUS OAKS     N/A     66  46  47 CALM      29.74S
PINE COVE        N/A     69  47  44 N3        29.82S

$$

SOUTHERN DESERT INCLUDING THE COACHELLA VALLEY

CITY           SKY/WX    TMP DP  RH WIND       PRES   REMARKS
PALM SPRINGS   PTCLDY    89  50  26 NW5       29.85S
THOUSAND PALMS   N/A     88  50  26 NW1       29.81S
PALM DESERT      N/A     88  54  31 CALM      31.15S
THERMAL        PTCLDY    81  70  69 CALM      29.80R
BLYTHE         PTCLDY    85  70  60 S12       29.83R
IMPERIAL AP    MOCLDY    87  76  69 S6        29.80R HX  97
EL CENTRO NAS  MOCLDY    85  74  69 S8        29.83R
YUMA AZ        CLEAR     85  70  60 S8        29.83R

$$

UPPER DESERT

CITY           SKY/WX    TMP DP  RH WIND       PRES   REMARKS
VICTORVILLE AP CLEAR     75  25  15 CALM      30.00S
HESPERIA         N/A     74  35  24 W5        29.93S
PALMDALE       CLEAR     76  32  20 S7        29.97S
LANCASTER      CLEAR     78  36  21 W10       29.96S
EDWARDS AFB    CLEAR     74  35  23 SW14      29.93S
DAGGETT        PTCLDY    81  34  18 W12       29.90S
29 PALMS N     MOCLDY    81  43  26 N3        29.99S
NEEDLES        CLEAR     93  61  34 W10       29.83R

$$

REGIONAL REPORTS

CITY           SKY/WX    TMP DP  RH WIND       PRES   REMARKS
SANTA BARBARA  CLOUDY    62  62 100 E6        29.93R FOG
SANDBERG       CLEAR     74  32  21 SW6       30.13S
LAS VEGAS NV   PTCLDY    91  32  12 S9        29.84R
PHOENIX AZ     PTCLDY    89  62  40 SE5       29.87S
TIJUANA        CLOUDY    70  63  78 N6        29.93F
ENSENADA NW      N/A     68  32  26 CALM      29.89R

$$

OFFSHORE ISLANDS

CITY           SKY/WX    TMP DP  RH WIND       PRES   REMARKS
CATALINA ARPT  CLEAR     61  60  97 E5        29.96S
SAN NICOLAS IS CLOUDY    66  50  57 CALM      29.92S

$$

MARINE AND OFFSHORE BUOY REPORTS

STATION/POSITION SKY/WX   TEMP    WIND        PRES    SWELL
                          AIR SEA DIR/SP/G            HT/PER/DIR
                          (F)     (DEG/KT/KT) (MB)    (FT/S/D)
TANNER BANKS               63 63   CALM  /  2 1012.9R   7/320/10
S CLEMENTE BASIN           65 69     CALM     1012.8R   5/180/14
SAN NICOLAS IS.               63                N/A     3/310/11
SO. S. ROSA ISLA           58 66  270/  6/ 10 1013.4S   7/310/10
W. S. BARBARA CH           57 58  320/  8/ 10 1013.0R   5/300/10
M. S. BARBARA CH                   CALM  /  2 1014.0R
S. MONICA BASIN            69 72  150/  6/  6 1013.1R   3/200/16
S PEDRO CHANNEL               72                N/A     2/170/15
OCEANSIDE OFFSHR              75                N/A     3/200/14
TORREY PINES OTR              74                N/A     2/200/13
LA JOLLA 1                 70 74  260/  2/  3 1012.7F
SAN DIEGO BAY                 77              1013.0F
POINT LOMA SOUTH              72                N/A     2/190/13

$$




USA.gov is the U.S. government's official web portal to all federal, state and local government web resources and services.